Regional Weather Roundup
Issued by NWS

Home | Current Version | Previous Version | Text Only | Print | Product List | Glossary On
Versions: 1 2 3 4 5 6 7 8 9 10 11 12 13 14 15 16 17 18 19 20 21 22 23 24 25 26 27 28 29 30 31 32 33 34 35 36 37 38 39 40 41 42 43 44 45 46 47 48 49 50
000
ASUS43 KDMX 250908
RWRIA

WEATHER ROUNDUP FOR IOWA
NATIONAL WEATHER SERVICE DES MOINES IA
400 AM CDT THU AUG 25 2016

NOTE: "FAIR" INDICATES FEW OR NO CLOUDS BELOW 12,000 FEET WITH NO
SIGNIFICANT WEATHER AND/OR OBSTRUCTIONS TO VISIBILITY.

* - THESE STATIONS ARE NOT NWS STATIONS...THUS NOT UNDER NWS
QUALITY CONTROL.  THEY ALSO DO NOT REPORT WEATHER SUCH
AS PRECIPITATION OR FOG.

IAZ001>003-012>014-020>022-031>034-043>046-251000-
   NORTHWEST IOWA

CITY           SKY/WX    TMP DP  RH WIND       PRES   REMARKS
CARROLL *      CLOUDY    61  61 100 NW5       30.09R
CHEROKEE *     PTCLDY    58  58  99 CALM      30.09S
DENISON *      CLOUDY    59  59 100 E5        30.08R
LE MARS *      CLOUDY    57  55  94 CALM      30.10S
ORANGE CITY *  PTCLDY    57  55  94 NW6       30.10S
SHELDON *      PTCLDY    54  54 100 CALM      30.08S
SIOUX CITY     CLOUDY    58  55  90 NW5       30.09S
SPENCER        MOCLDY    54  53  97 NW5       30.09S
STORM LAKE *   PTCLDY    61  57  88 NW6       30.09S
$$

IAZ055>058-069>071-079>083-090>094-251000-
   SOUTHWEST IOWA

CITY           SKY/WX    TMP DP  RH WIND       PRES   REMARKS
ATLANTIC *     CLOUDY    63  61  94 N6        30.08S
AUDUBON *      PTCLDY    63  57  82 CALM      30.10R
CLARINDA *       N/A     64  64 100 MISG      30.09R
COUNCIL BLFS * MOCLDY    61  61 100 N5        30.09S
CRESTON *      CLOUDY    68  63  83 N8        30.09R
HARLAN  *      CLOUDY    61  61 100 CALM      30.12S
LAMONI         MOCLDY    68  67  96 N3        30.05R
RED OAK *      CLOUDY    63  63 100 N5        30.08R
SHENANDOAH *   CLOUDY    63 N/A N/A N5        30.08S
$$

IAZ047>049-059>061-072>074-084-251000-
   CENTRAL IOWA

CITY           SKY/WX    TMP DP  RH WIND       PRES   REMARKS
AMES           CLOUDY    67  64  90 N7        30.06S
ANKENY *         N/A    N/A N/A N/A MISG        N/A
BOONE *        CLOUDY    66  61  82 N6        30.06S
CHARITON *       N/A     70  68  94 MISG      30.05R
DES MOINES     MOCLDY    69  65  86 N6        30.05S
GRINNELL*      PTCLDY    66  63  90 NW5       30.05S
KNOXVILLE *    CLOUDY    70  66  88 N6        30.04R
MARSHALLTOWN   PTCLDY    64  63  96 NW5       30.05R
NEWTON *       CLOUDY    66  66 100 N8        30.04S
PELLA *        CLOUDY    68  67  96 CALM      30.05R
PERRY *        CLOUDY    65  65  97 CALM      30.07S
$$

IAZ004>006-015-016-023>025-035-036-251000-
   NORTH CENTRAL IOWA

CITY           SKY/WX    TMP DP  RH WIND       PRES   REMARKS
ALGONA *       CLOUDY    61  57  88 NW5       30.08S
ESTHERVILLE    MOCLDY    57  56  96 W7        30.07F
FORT DODGE *   CLOUDY    63  59  88 CALM      30.08F
MASON CITY     CLOUDY    61  59  93 W6        30.08S
FOREST CITY *    N/A    N/A N/A N/A MISG        N/A
WEBSTER CITY * CLOUDY    64  63  94 NW6       30.05S
IOWA FALLS *   CLOUDY    65  60  84 NW5       30.07R
$$

IAZ007>011-017>019-026>030-037>042-050>054-066-251000-
   NORTHEAST IOWA

CITY           SKY/WX    TMP DP  RH WIND       PRES   REMARKS
CEDAR RAPIDS   CLOUDY    69  68  96 N7        30.02S
CHARLES CITY * CLOUDY    64  63  94 NW7       30.05S
CLINTON *      CLOUDY    71  71 100 SW6       29.99F FOG
DECORAH *      CLOUDY    64  61  88 CALM      30.03S
DUBUQUE        CLOUDY    69  63  81 N7        30.02S
MONTICELLO *   CLOUDY    68  64  88 NW6       30.02S
OELWEIN *      CLOUDY    64  63  94 W3        30.06R
WATERLOO       CLOUDY    66  61  84 CALM      30.04R
$$

IAZ064-065-067-068-078-251000-
   EAST CENTRAL IOWA

CITY           SKY/WX    TMP DP  RH WIND       PRES   REMARKS
DAVENPORT      CLOUDY    71  70  96 SW5       30.00S FOG
IOWA CITY      CLOUDY    72  69  90 NW8       30.02S
MT. PLEASANT * MOCLDY    70  70 100 CALM      30.02R
MUSCATINE *    MOCLDY    70  68  94 W6        30.01R
QUAD CITIES    CLOUDY    71  69  93 SW5       29.99F
$$

IAZ062-063-075>077-085>089-095>099-251000-
   SOUTHEAST IOWA

CITY           SKY/WX    TMP DP  RH WIND       PRES   REMARKS
BURLINGTON     CLOUDY    69  69 100 W5        30.01R
FAIRFIELD *    CLOUDY    68  66  94 W6        30.03R
FORT MADISON * CLOUDY    68  68 100 CALM      30.03R FOG
KEOKUK *       MOCLDY    72  72 100 SW6       30.01S
OSKALOOSA *    RAIN      68  67  98 CALM      30.05R
CENTERVILLE *  CLOUDY    68  68 100 CALM      30.06R
OTTUMWA        RAIN      69  67  93 NW7       30.03S FOG
WASHINGTON *   LGT RAIN  68  68 100 W7        30.04R
$$

ABBREVIATIONS USED IN REMARKS
   TC - TEMPERATURES IN CELSIUS
  WCI - WIND CHILL INDEX
   HX - HEAT INDEX
  VSB - VISIBILITY
$$





USA.gov is the U.S. government's official web portal to all federal, state and local government web resources and services.